User: anonymous   Login
Location: La Brionne
(46.1728°N, 1.7849°E)
Time: 20:20:12
(UTC+00:00)
Language:

BREEZE-M DEB (TANK) - Orbit

View from above orbital plane
View from above orbital plane
View from above satellite
View from above satellite

Ground track
Ground track

The orbit data is extracted from the following two-line orbital elements,

1 37871U 11064E   21270.16016259  .00004270  00000-0  10064-2 0  9996
2 37871  52.6270  40.9075 5794776 169.6092 211.5213  4.34045505155616
Epoch (UTC): 27 September 2021 03:50:38
Eccentricity: 0.5794776
inclination: 52.6270°
perigee height: 297 km
apogee height: 18696 km
right ascension of ascending node: 40.9075°
argument of perigee: 169.6092°
revolutions per day: 4.34045505
mean anomaly at epoch: 211.5213°
orbit number at epoch: 15561

The dashed part of the orbit path shows where the satellite is in the earth's shadow,  

DLR